• In Czech Republic
  • List of Countries
  • For 7 days
  • Water Temperature
  • Satellite Maps
  • Weather Map
  • Weather Widgets
  • user-avatar
    Login

    Hourly Weather Baranain

    Today, 22 May, Tuesday

    Time Temperature Precipitation Wind Pressure Humidity
    00:00 +12°C° 0 mm 1 mps 721 mmHg 91%
    01:00 +12°C° 0 mm 1 mps 721 mmHg 91%
    02:00 +12°C° 0 mm 1 mps 721 mmHg 91%
    03:00 +11°C° 0 mm 1 mps 721 mmHg 91%
    04:00 +12°C° 0 mm 1 mps 721 mmHg 90%
    05:00 +13°C° 0 mm 1 mps 721 mmHg 89%
    06:00 +13°C° 0 mm 1 mps 721 mmHg 87%
    07:00 +15°C° 0 mm 1 mps 722 mmHg 78%
    08:00 +18°C° 0 mm 1 mps 722 mmHg 68%
    09:00 +19°C° 0 mm 2 mps 722 mmHg 58%
    10:00 +20°C° 0 mm 2 mps 722 mmHg 53%
    11:00 +23°C° 0 mm 2 mps 723 mmHg 47%
    12:00 +24°C° 0 mm 3 mps 723 mmHg 41%
    13:00 +24°C° 0 mm 3 mps 723 mmHg 42%
    14:00 +24°C° 0 mm 3 mps 722 mmHg 43%
    15:00 +24°C° 0 mm 3 mps 722 mmHg 44%
    16:00 +22°C° 0 mm 3 mps 722 mmHg 51%
    17:00 +21°C° 0 mm 3 mps 723 mmHg 57%
    18:00 +20°C° 0 mm 3 mps 723 mmHg 64%
    19:00 +18°C° 0 mm 2 mps 723 mmHg 72%
    20:00 +16°C° 0 mm 2 mps 723 mmHg 80%
    21:00 +13°C° 0 mm 1 mps 724 mmHg 88%
    22:00 +13°C° 0 mm 1 mps 724 mmHg 88%
    23:00 +12°C° 0 mm 1 mps 724 mmHg 89%

    Tomorrow, 23 May, Wednesday

    Time Temperature Precipitation Wind Pressure Humidity
    00:00 +12°C° 0 mm 1 mps 724 mmHg 90%
    01:00 +12°C° 0 mm 1 mps 724 mmHg 89%
    02:00 +12°C° 0 mm 1 mps 724 mmHg 88%
    03:00 +11°C° 0 mm 1 mps 724 mmHg 87%
    04:00 +12°C° 0 mm 1 mps 724 mmHg 85%
    05:00 +13°C° 0 mm 1 mps 724 mmHg 83%
    06:00 +13°C° 0 mm 1 mps 724 mmHg 81%
    07:00 +16°C° 0 mm 1 mps 724 mmHg 71%
    08:00 +19°C° 0 mm 1 mps 725 mmHg 60%
    09:00 +22°C° 0 mm 1 mps 725 mmHg 50%
    10:00 +23°C° 0 mm 1 mps 725 mmHg 48%
    11:00 +23°C° 0 mm 1 mps 725 mmHg 46%
    12:00 +24°C° 0 mm 1 mps 725 mmHg 44%
    13:00 +25°C° 0 mm 1 mps 725 mmHg 43%
    14:00 +26°C° 0 mm 1 mps 724 mmHg 42%
    15:00 +26°C° 0 mm 1 mps 724 mmHg 41%
    16:00 +25°C° 0 mm 1 mps 724 mmHg 47%
    17:00 +25°C° 0 mm 1 mps 724 mmHg 53%
    18:00 +24°C° 0 mm 1 mps 723 mmHg 60%
    19:00 +22°C° 0.3 mm 1 mps 724 mmHg 66%
    20:00 +20°C° 0.3 mm 1 mps 724 mmHg 72%
    21:00 +18°C° 0.3 mm 1 mps 724 mmHg 78%
    22:00 +18°C° 0.3 mm 1 mps 724 mmHg 79%
    23:00 +16°C° 0.3 mm 1 mps 724 mmHg 81%

    Day after tomorrow, 24 May, Thursday

    Time Temperature Precipitation Wind Pressure Humidity
    00:00 +16°C° 0.3 mm 1 mps 724 mmHg 82%
    01:00 +16°C° 0.7 mm 1 mps 724 mmHg 84%
    02:00 +16°C° 0.7 mm 1 mps 723 mmHg 86%
    03:00 +16°C° 0.7 mm 1 mps 723 mmHg 87%
    04:00 +16°C° 0.5 mm 1 mps 723 mmHg 87%
    05:00 +16°C° 0.5 mm 1 mps 723 mmHg 87%
    06:00 +16°C° 0.5 mm 1 mps 723 mmHg 87%
    07:00 +18°C° 0 mm 2 mps 724 mmHg 77%
    08:00 +20°C° 0 mm 2 mps 724 mmHg 67%
    09:00 +22°C° 0 mm 3 mps 724 mmHg 57%
    10:00 +25°C° 0 mm 4 mps 724 mmHg 52%
    11:00 +26°C° 0 mm 4 mps 724 mmHg 46%
    12:00 +27°C° 0 mm 5 mps 723 mmHg 40%
    13:00 +28°C° 0 mm 5 mps 723 mmHg 40%
    14:00 +28°C° 0 mm 5 mps 723 mmHg 40%
    15:00 +28°C° 0 mm 5 mps 722 mmHg 39%
    16:00 +27°C° 0 mm 4 mps 722 mmHg 46%
    17:00 +26°C° 0 mm 3 mps 722 mmHg 53%
    18:00 +25°C° 0 mm 3 mps 722 mmHg 59%
    19:00 +23°C° 0 mm 2 mps 722 mmHg 64%
    20:00 +20°C° 0 mm 2 mps 722 mmHg 68%
    21:00 +18°C° 0 mm 2 mps 722 mmHg 72%
    22:00 +18°C° 0 mm 2 mps 722 mmHg 72%
    23:00 +17°C° 0 mm 2 mps 722 mmHg 71%

    25 May, Friday

    Time Temperature Precipitation Wind Pressure Humidity
    00:00 +17°C° 0 mm 2 mps 722 mmHg 71%
    01:00 +16°C° 0 mm 2 mps 722 mmHg 71%
    02:00 +16°C° 0 mm 2 mps 722 mmHg 70%
    03:00 +16°C° 0 mm 2 mps 722 mmHg 70%
    04:00 +16°C° 0 mm 2 mps 722 mmHg 70%
    05:00 +16°C° 0 mm 2 mps 722 mmHg 70%
    06:00 +16°C° 0 mm 2 mps 722 mmHg 70%
    07:00 +19°C° 0 mm 2 mps 722 mmHg 62%
    08:00 +21°C° 0 mm 3 mps 722 mmHg 55%
    09:00 +24°C° 0 mm 3 mps 722 mmHg 47%
    10:00 +26°C° 0 mm 3 mps 722 mmHg 44%
    11:00 +27°C° 0 mm 4 mps 722 mmHg 41%
    12:00 +29°C° 0 mm 4 mps 722 mmHg 38%
    13:00 +29°C° 0.1 mm 4 mps 721 mmHg 40%
    14:00 +29°C° 0.1 mm 4 mps 721 mmHg 41%
    15:00 +29°C° 0.1 mm 4 mps 721 mmHg 42%
    16:00 +28°C° 0.4 mm 3 mps 721 mmHg 49%
    17:00 +27°C° 0.4 mm 3 mps 720 mmHg 57%
    18:00 +26°C° 0.4 mm 3 mps 720 mmHg 64%
    19:00 +24°C° 0.7 mm 2 mps 720 mmHg 71%
    20:00 +21°C° 0.7 mm 2 mps 721 mmHg 77%
    21:00 +19°C° 0.7 mm 2 mps 721 mmHg 84%
    22:00 +18°C° 0.3 mm 2 mps 721 mmHg 85%
    23:00 +18°C° 0.3 mm 2 mps 721 mmHg 86%

    26 May, Saturday

    Time Temperature Precipitation Wind Pressure Humidity
    00:00 +17°C° 0.3 mm 2 mps 721 mmHg 88%
    01:00 +17°C° 0 mm 2 mps 721 mmHg 87%
    02:00 +16°C° 0 mm 2 mps 721 mmHg 87%
    03:00 +16°C° 0 mm 2 mps 721 mmHg 87%
    04:00 +16°C° 0.1 mm 1 mps 721 mmHg 86%
    05:00 +18°C° 0.1 mm 1 mps 721 mmHg 85%
    06:00 +18°C° 0.1 mm 1 mps 721 mmHg 84%
    07:00 +19°C° 0.1 mm 2 mps 721 mmHg 76%
    08:00 +21°C° 0.1 mm 2 mps 721 mmHg 68%
    09:00 +24°C° 0.1 mm 2 mps 722 mmHg 60%
    10:00 +25°C° 0 mm 3 mps 722 mmHg 56%
    11:00 +26°C° 0 mm 3 mps 722 mmHg 52%
    12:00 +28°C° 0 mm 3 mps 721 mmHg 48%
    13:00 +28°C° 0.1 mm 3 mps 721 mmHg 48%
    14:00 +28°C° 0.1 mm 3 mps 721 mmHg 49%
    15:00 +28°C° 0.1 mm 3 mps 720 mmHg 50%
    16:00 +27°C° 0.6 mm 3 mps 720 mmHg 55%
    17:00 +27°C° 0.6 mm 2 mps 720 mmHg 61%
    18:00 +26°C° 0.6 mm 2 mps 720 mmHg 66%
    19:00 +24°C° 0.8 mm 2 mps 720 mmHg 70%
    20:00 +23°C° 0.8 mm 2 mps 720 mmHg 73%
    21:00 +20°C° 0.8 mm 3 mps 721 mmHg 77%
    22:00 +20°C° 0.7 mm 3 mps 721 mmHg 80%
    23:00 +19°C° 0.7 mm 3 mps 721 mmHg 84%

    27 May, Sunday

    Time Temperature Precipitation Wind Pressure Humidity
    00:00 +18°C° 0.7 mm 3 mps 721 mmHg 87%
    01:00 +18°C° 0.1 mm 2 mps 721 mmHg 87%
    02:00 +18°C° 0.1 mm 2 mps 720 mmHg 86%
    03:00 +17°C° 0.1 mm 2 mps 720 mmHg 86%
    04:00 +17°C° 0.4 mm 2 mps 721 mmHg 86%
    05:00 +18°C° 0.4 mm 2 mps 721 mmHg 86%
    06:00 +18°C° 0.4 mm 2 mps 721 mmHg 86%
    07:00 +19°C° 0 mm 2 mps 721 mmHg 78%
    08:00 +21°C° 0 mm 2 mps 721 mmHg 70%
    09:00 +24°C° 0 mm 2 mps 721 mmHg 62%
    10:00 +26°C° 0 mm 3 mps 721 mmHg 57%
    11:00 +27°C° 0 mm 3 mps 721 mmHg 52%
    12:00 +29°C° 0 mm 3 mps 721 mmHg 46%
    13:00 +28°C° 0.9 mm 3 mps 721 mmHg 50%
    14:00 +28°C° 0.9 mm 2 mps 721 mmHg 54%
    15:00 +28°C° 0.9 mm 2 mps 720 mmHg 57%
    16:00 +26°C° 3.2 mm 2 mps 720 mmHg 65%
    17:00 +24°C° 3.2 mm 2 mps 720 mmHg 72%
    18:00 +23°C° 3.2 mm 2 mps 720 mmHg 79%
    19:00 +21°C° 4 mm 2 mps 720 mmHg 83%
    20:00 +19°C° 4 mm 2 mps 720 mmHg 87%
    21:00 +18°C° 4 mm 2 mps 720 mmHg 91%
    22:00 +18°C° 2.3 mm 2 mps 720 mmHg 91%
    23:00 +18°C° 2.3 mm 2 mps 720 mmHg 92%
    Show more